Погода в Корпус-Кристи

США     27°45′01″N   97°27′08″W
темп.,
°C
ветер,
м/с
пор.,
м/с
влажн.,
%
обл.,
%
осадки,
мм/ч
давл.,
гПа
погр.,
м
21 октября, чт
чт2101:00+23ююв33883 0.0 101761
04:00+23ююв11935 0.0 101711
07:00+22ссв119427 0.0 101811
10:00+26ссв227759 0.0 1020465
13:00+29св335419 0.0 10191282
16:00+29в4452100 0.0 10161137
19:00+26вюв476646 0.0 1016261
22:00+25вюв478073 0.0 1018270
22 октября, пт
пт2201:00+24юв23845 0.0 101782
04:00+23юв22865 0.0 101621
07:00+22юв12895 0.0 101611
10:00+26ююв127121 0.0 1017609
13:00+29юв3452100 0.0 10151368
16:00+29вюв5555100 0.0 10131215
19:00+25вюв5779100 0.0 1013415
22:00+25юв598272 0.0 1014470
23 октября, сб
сб2301:00+24ююв49855 0.3 1013344
04:00+24юв38873 0.6 1012261
07:00+24юв37924 0.8 1012199
10:00+27ююв687129 0.0 1013894
13:00+30ююв78490 0.1 10121493
16:00+30юв89580 0.0 10091510
19:00+26юв610790 0.1 1010704
22:00+26юв611820 0.2 1011624
24 октября, вс
вс2401:00+25ююв510862 0.4 1010573
04:00+25ююв4990100 0.0 1009461
07:00+24юв3895100 0.1 1009286
10:00+28ююв6872100 0.1 1011942
13:00+31ююв7753100 0.1 10101425
16:00+31ююв7856100 0.0 10081341
19:00+27юв7108197 0.0 1009558
22:00+26юв5988100 0.0 1011494
25 октября, пн
пн2501:00+26ююв51189100 0.0 1011557
04:00+26ююв41092100 0.0 1010474
07:00+26ююв51093100 0.0 1011476
10:00+28ююв61076100 0.4 1013707
13:00+30ю6859100 0.4 10121021
16:00+31ю7854100 0.0 10101168
19:00+26ю7117498 0.0 1012683
22:00+25ююв7137898 0.0 1013913